Hourly Weather Knighton

Today, 10 July, Friday

Time Temperature Precipitation Wind Pressure Humidity
00:00 +9°C° 0 mm 2 mps 732 mmHg 96%
01:00 +8°C° 0 mm 2 mps 732 mmHg 95%
02:00 +7°C° 0 mm 2 mps 732 mmHg 94%
03:00 +7°C° 0 mm 2 mps 732 mmHg 93%
04:00 +7°C° 0 mm 3 mps 732 mmHg 93%
05:00 +7°C° 0 mm 3 mps 732 mmHg 92%
06:00 +8°C° 0 mm 3 mps 733 mmHg 94%
07:00 +8°C° 0 mm 4 mps 733 mmHg 87%
08:00 +10°C° 0 mm 5 mps 734 mmHg 81%
09:00 +11°C° 0 mm 6 mps 734 mmHg 74%
10:00 +11°C° 0 mm 6 mps 734 mmHg 72%
11:00 +13°C° 0 mm 6 mps 735 mmHg 70%
12:00 +14°C° 0 mm 6 mps 735 mmHg 68%
13:00 +14°C° 0 mm 6 mps 735 mmHg 68%
14:00 +14°C° 0 mm 6 mps 735 mmHg 68%
15:00 +14°C° 0 mm 5 mps 735 mmHg 69%
16:00 +14°C° 0 mm 5 mps 735 mmHg 71%
17:00 +13°C° 0 mm 5 mps 736 mmHg 74%
18:00 +13°C° 0 mm 5 mps 736 mmHg 76%
19:00 +11°C° 0 mm 4 mps 736 mmHg 81%
20:00 +10°C° 0 mm 4 mps 737 mmHg 87%
21:00 +8°C° 0 mm 3 mps 737 mmHg 92%
22:00 +8°C° 0 mm 3 mps 737 mmHg 92%
23:00 +8°C° 0 mm 3 mps 738 mmHg 93%

Tomorrow, 11 July, Saturday

Time Temperature Precipitation Wind Pressure Humidity
00:00 +7°C° 0 mm 2 mps 738 mmHg 94%
01:00 +7°C° 0 mm 2 mps 738 mmHg 94%
02:00 +7°C° 0 mm 2 mps 738 mmHg 94%
03:00 +7°C° 0 mm 2 mps 738 mmHg 94%
04:00 +9°C° 0 mm 1 mps 738 mmHg 93%
05:00 +9°C° 0 mm 1 mps 738 mmHg 92%
06:00 +10°C° 0 mm 1 mps 739 mmHg 90%
07:00 +10°C° 0 mm 2 mps 739 mmHg 84%
08:00 +13°C° 0 mm 2 mps 740 mmHg 78%
09:00 +13°C° 0 mm 3 mps 740 mmHg 72%
10:00 +14°C° 0 mm 3 mps 740 mmHg 71%
11:00 +14°C° 0 mm 3 mps 740 mmHg 70%
12:00 +16°C° 0 mm 3 mps 740 mmHg 69%
13:00 +16°C° 0 mm 3 mps 740 mmHg 68%
14:00 +17°C° 0 mm 3 mps 741 mmHg 67%
15:00 +17°C° 0 mm 3 mps 741 mmHg 66%
16:00 +16°C° 0.1 mm 3 mps 741 mmHg 70%
17:00 +16°C° 0.1 mm 3 mps 740 mmHg 73%
18:00 +14°C° 0.1 mm 3 mps 740 mmHg 77%
19:00 +13°C° 0 mm 2 mps 741 mmHg 81%
20:00 +10°C° 0 mm 2 mps 741 mmHg 84%
21:00 +9°C° 0 mm 1 mps 741 mmHg 88%
22:00 +9°C° 0 mm 1 mps 741 mmHg 88%
23:00 +8°C° 0 mm 1 mps 741 mmHg 89%

Day after tomorrow, 12 July, Sunday

Time Temperature Precipitation Wind Pressure Humidity
00:00 +6°C° 0 mm 0 mps 741 mmHg 89%
01:00 +6°C° 0 mm 0 mps 741 mmHg 89%
02:00 +6°C° 0 mm 0 mps 741 mmHg 89%
03:00 +6°C° 0 mm 0 mps 741 mmHg 89%
04:00 +7°C° 0 mm 0 mps 741 mmHg 88%
05:00 +8°C° 0 mm 0 mps 741 mmHg 87%
06:00 +9°C° 0 mm 0 mps 741 mmHg 85%
07:00 +11°C° 0 mm 0 mps 741 mmHg 82%
08:00 +12°C° 0 mm 0 mps 741 mmHg 78%
09:00 +15°C° 0 mm 1 mps 741 mmHg 74%
10:00 +16°C° 0 mm 1 mps 742 mmHg 70%
11:00 +18°C° 0 mm 1 mps 742 mmHg 66%
12:00 +19°C° 0 mm 1 mps 742 mmHg 62%
13:00 +19°C° 0 mm 1 mps 742 mmHg 63%
14:00 +18°C° 0 mm 2 mps 741 mmHg 63%
15:00 +18°C° 0 mm 2 mps 741 mmHg 63%
16:00 +18°C° 0 mm 2 mps 741 mmHg 68%
17:00 +18°C° 0 mm 2 mps 741 mmHg 73%
18:00 +17°C° 0 mm 2 mps 740 mmHg 77%
19:00 +15°C° 0 mm 1 mps 740 mmHg 82%
20:00 +14°C° 0 mm 1 mps 741 mmHg 86%
21:00 +12°C° 0 mm 1 mps 741 mmHg 90%
22:00 +11°C° 0 mm 1 mps 740 mmHg 90%
23:00 +10°C° 0 mm 1 mps 740 mmHg 90%

13 July, Monday

Time Temperature Precipitation Wind Pressure Humidity
00:00 +10°C° 0 mm 1 mps 740 mmHg 91%
01:00 +9°C° 0 mm 1 mps 740 mmHg 91%
02:00 +9°C° 0 mm 1 mps 739 mmHg 91%
03:00 +9°C° 0 mm 1 mps 739 mmHg 90%
04:00 +9°C° 0 mm 1 mps 739 mmHg 89%
05:00 +10°C° 0 mm 1 mps 739 mmHg 88%
06:00 +11°C° 0 mm 1 mps 739 mmHg 86%
07:00 +12°C° 0 mm 2 mps 739 mmHg 81%
08:00 +13°C° 0 mm 3 mps 739 mmHg 76%
09:00 +14°C° 0 mm 3 mps 739 mmHg 71%
10:00 +16°C° 0 mm 3 mps 739 mmHg 72%
11:00 +17°C° 0 mm 4 mps 738 mmHg 73%
12:00 +18°C° 0 mm 4 mps 738 mmHg 74%
13:00 +18°C° 0 mm 4 mps 738 mmHg 74%
14:00 +18°C° 0 mm 4 mps 737 mmHg 75%
15:00 +16°C° 0 mm 5 mps 737 mmHg 76%
16:00 +17°C° 0 mm 4 mps 737 mmHg 78%
17:00 +15°C° 0 mm 4 mps 736 mmHg 81%
18:00 +15°C° 0 mm 4 mps 736 mmHg 83%
19:00 +14°C° 0.1 mm 3 mps 736 mmHg 86%
20:00 +13°C° 0.1 mm 3 mps 735 mmHg 89%
21:00 +12°C° 0.1 mm 3 mps 735 mmHg 91%
22:00 +12°C° 0.1 mm 3 mps 735 mmHg 93%
23:00 +12°C° 0.1 mm 3 mps 734 mmHg 94%

14 July, Tuesday

Time Temperature Precipitation Wind Pressure Humidity
00:00 +12°C° 0.1 mm 3 mps 734 mmHg 96%
01:00 +12°C° 0.2 mm 3 mps 734 mmHg 96%
02:00 +13°C° 0.2 mm 2 mps 733 mmHg 97%
03:00 +12°C° 0.2 mm 2 mps 733 mmHg 97%
04:00 +13°C° 0.6 mm 2 mps 733 mmHg 97%
05:00 +13°C° 0.6 mm 1 mps 733 mmHg 97%
06:00 +13°C° 0.6 mm 1 mps 733 mmHg 97%
07:00 +14°C° 0.4 mm 1 mps 733 mmHg 96%
08:00 +14°C° 0.4 mm 1 mps 733 mmHg 94%
09:00 +15°C° 0.4 mm 1 mps 733 mmHg 93%
10:00 +15°C° 0.2 mm 2 mps 733 mmHg 90%
11:00 +16°C° 0.2 mm 2 mps 733 mmHg 87%
12:00 +16°C° 0.2 mm 3 mps 733 mmHg 84%
13:00 +16°C° 0.2 mm 3 mps 732 mmHg 82%
14:00 +15°C° 0.2 mm 4 mps 732 mmHg 81%
15:00 +15°C° 0.2 mm 5 mps 732 mmHg 80%
16:00 +15°C° 0 mm 5 mps 732 mmHg 80%
17:00 +14°C° 0 mm 5 mps 732 mmHg 80%
18:00 +14°C° 0 mm 4 mps 732 mmHg 80%
19:00 +13°C° 0 mm 4 mps 732 mmHg 84%
20:00 +11°C° 0 mm 3 mps 732 mmHg 89%
21:00 +10°C° 0 mm 2 mps 732 mmHg 93%
22:00 +10°C° 0 mm 3 mps 732 mmHg 93%
23:00 +11°C° 0 mm 3 mps 732 mmHg 92%

15 July, Wednesday

Time Temperature Precipitation Wind Pressure Humidity
00:00 +11°C° 0 mm 3 mps 732 mmHg 92%
01:00 +11°C° 0 mm 3 mps 732 mmHg 92%
02:00 +11°C° 0 mm 3 mps 732 mmHg 91%
03:00 +11°C° 0 mm 3 mps 731 mmHg 91%
04:00 +12°C° 0 mm 4 mps 731 mmHg 91%
05:00 +12°C° 0 mm 4 mps 731 mmHg 91%
06:00 +12°C° 0 mm 4 mps 731 mmHg 91%
07:00 +12°C° 0 mm 4 mps 731 mmHg 91%
08:00 +13°C° 0 mm 4 mps 731 mmHg 91%
09:00 +13°C° 0 mm 4 mps 731 mmHg 91%
10:00 +14°C° 0 mm 4 mps 732 mmHg 90%
11:00 +14°C° 0 mm 5 mps 732 mmHg 89%
12:00 +15°C° 0 mm 5 mps 732 mmHg 88%
13:00 +16°C° 0 mm 5 mps 732 mmHg 86%
14:00 +16°C° 0 mm 5 mps 732 mmHg 85%
15:00 +17°C° 0 mm 5 mps 732 mmHg 83%
16:00 +17°C° 0 mm 5 mps 732 mmHg 84%
17:00 +18°C° 0 mm 4 mps 733 mmHg 85%
18:00 +17°C° 0 mm 4 mps 733 mmHg 86%
19:00 +16°C° 0 mm 3 mps 733 mmHg 89%
20:00 +14°C° 0 mm 3 mps 733 mmHg 92%
21:00 +14°C° 0 mm 2 mps 734 mmHg 95%
22:00 +14°C° 0 mm 2 mps 734 mmHg 96%
23:00 +14°C° 0 mm 2 mps 734 mmHg 96%
Show more